Location: Kellogg
(38.0159°N, 90.0546°W)
Time: 21:44:17
(UTC+00:00)

Vanguard 2 - Pass Details

Date: 20 September 2024
Orbit: 552 x 2910 km, 32.9° (Epoch: 09 October)

Event Time Altitude Azimuth Distance (km) Brightness Sun altitude
Rises 09:49:33 0° 260° (W) 2,842 - -23.4°
Reaches altitude 10° 09:51:34 10° 254° (WSW) 2,053 - -23.0°
Exits shadow 09:55:09 46° 212° (SSW) 1,038 7.8 -22.3°
Maximum altitude 09:56:03 51° 178° (S) 1,014 7.9 -22.2°
Drops below altitude 10° 10:02:48 10° 105° (ESE) 3,067 11.4 -20.9°
Sets 10:06:27 0° 101° (E) 4,422 12.5 -20.2°
